TimeMST,TemperatureF,Dew PointF,Humidity,Sea Level PressureIn,VisibilityMPH,Wind Direction,Wind SpeedMPH,Gust SpeedMPH,PrecipitationIn,Events,Conditions,WindDirDegrees,DateUTC
12:16 AM,-9.4,-14.8,77,29.92,-9999.0,Calm,Calm,-,N/A,,Clear,0,2013-01-30 07:16:00
12:36 AM,-9.4,-14.8,77,29.92,-9999.0,North,3.5,-,N/A,,Unknown,360,2013-01-30 07:36:00
12:56 AM,-13.0,-16.6,84,29.92,-9999.0,Calm,Calm,-,N/A,,Clear,0,2013-01-30 07:56:00
1:16 AM,-13.0,-16.6,84,29.92,-9999.0,Calm,Calm,-,N/A,,Unknown,0,2013-01-30 08:16:00
1:36 AM,-13.0,-18.4,77,29.92,-9999.0,Calm,Calm,-,N/A,,Mostly Cloudy,0,2013-01-30 08:36:00
1:56 AM,-13.0,-18.4,77,29.93,-9999.0,Calm,Calm,-,N/A,,Overcast,0,2013-01-30 08:56:00
2:16 AM,-9.4,-14.8,77,29.93,-9999.0,Calm,Calm,-,N/A,,Mostly Cloudy,0,2013-01-30 09:16:00
2:36 AM,-9.4,-16.6,71,29.94,-9999.0,Calm,Calm,-,N/A,,Mostly Cloudy,0,2013-01-30 09:36:00
2:56 AM,-9.4,-14.8,77,29.94,-9999.0,Calm,Calm,-,N/A,Snow,Light Snow,0,2013-01-30 09:56:00
3:15 AM,-9.4,-14.8,77,29.94,-9999.0,Calm,Calm,-,N/A,Snow,Light Snow,0,2013-01-30 10:15:00
3:36 AM,-7.6,-13.0,77,29.95,-9999.0,Calm,Calm,-,N/A,,Overcast,0,2013-01-30 10:36:00
3:55 AM,-7.6,-13.0,77,29.96,-9999.0,Calm,Calm,-,N/A,,Overcast,0,2013-01-30 10:55:00
4:16 AM,-7.6,-13.0,77,29.96,-9999.0,Calm,Calm,-,N/A,,Overcast,0,2013-01-30 11:16:00
4:32 AM,-7.6,-13.0,77,29.95,-9999.0,Calm,Calm,-,N/A,,Overcast,0,2013-01-30 11:32:00
4:51 AM,-7.6,-13.0,77,29.96,-9999.0,Calm,Calm,-,N/A,,Overcast,0,2013-01-30 11:51:00
5:16 AM,-5.8,-9.4,84,29.96,-9999.0,Calm,Calm,-,N/A,,Overcast,0,2013-01-30 12:16:00
5:36 AM,-5.8,-9.4,84,29.95,-9999.0,Calm,Calm,-,N/A,,Overcast,0,2013-01-30 12:36:00
5:53 AM,-4.0,-9.4,78,29.95,-9999.0,Calm,Calm,-,N/A,,Overcast,0,2013-01-30 12:53:00
6:16 AM,-2.2,-7.6,78,29.95,-9999.0,Calm,Calm,-,N/A,,Overcast,0,2013-01-30 13:16:00
6:36 AM,-0.4,-5.8,78,29.94,-9999.0,Calm,Calm,-,N/A,Snow,Light Snow,0,2013-01-30 13:36:00
6:47 AM,1.4,-4.0,78,29.94,-9999.0,ESE,3.5,-,N/A,Snow,Light Snow,110,2013-01-30 13:47:00
7:16 AM,3.2,-0.4,85,29.96,-9999.0,Calm,Calm,-,N/A,,Unknown,0,2013-01-30 14:16:00
7:31 AM,3.2,-0.4,85,29.96,-9999.0,Calm,Calm,-,N/A,,Overcast,0,2013-01-30 14:31:00
7:56 AM,10.4,3.2,73,29.96,-9999.0,ESE,4.6,-,N/A,Snow,Light Snow,120,2013-01-30 14:56:00
8:08 AM,8.6,3.2,79,29.96,-9999.0,ESE,4.6,-,N/A,Snow,Light Snow,110,2013-01-30 15:08:00
8:36 AM,12.2,8.6,85,29.96,-9999.0,Calm,Calm,-,N/A,Snow,Light Snow,0,2013-01-30 15:36:00
8:56 AM,12.2,8.6,85,29.95,-9999.0,SSW,4.6,-,N/A,,Overcast,210,2013-01-30 15:56:00
9:06 AM,14.0,8.6,79,29.96,-9999.0,SSW,6.9,-,N/A,,Overcast,210,2013-01-30 16:06:00
9:35 AM,17.6,8.6,68,29.96,-9999.0,SW,10.4,-,N/A,Snow,Light Snow,230,2013-01-30 16:35:00
9:56 AM,17.6,10.4,73,29.95,-9999.0,SW,9.2,-,N/A,,Overcast,230,2013-01-30 16:56:00
10:16 AM,17.6,8.6,68,29.95,-9999.0,SSW,3.5,-,N/A,,Overcast,210,2013-01-30 17:16:00
10:36 AM,19.4,8.6,63,29.95,-9999.0,West,11.5,18.4,N/A,,Overcast,260,2013-01-30 17:36:00
10:56 AM,19.4,10.4,68,29.94,-9999.0,North,4.6,-,N/A,,Overcast,360,2013-01-30 17:56:00
11:16 AM,19.4,10.4,68,29.94,-9999.0,WSW,3.5,-,N/A,,Overcast,240,2013-01-30 18:16:00
11:36 AM,19.4,10.4,68,29.93,-9999.0,WSW,15.0,-,N/A,,Overcast,240,2013-01-30 18:36:00
11:56 AM,19.4,12.2,74,29.92,-9999.0,WSW,17.3,23.0,N/A,Snow,Light Snow,240,2013-01-30 18:56:00
12:16 PM,21.2,12.2,68,29.92,-9999.0,WSW,20.7,25.3,N/A,Snow,Light Snow,250,2013-01-30 19:16:00
12:36 PM,21.2,14.0,74,29.91,-9999.0,WSW,21.9,27.6,N/A,Snow,Light Snow,250,2013-01-30 19:36:00
12:56 PM,23.0,14.0,68,29.90,-9999.0,WSW,18.4,25.3,N/A,Snow,Light Snow,250,2013-01-30 19:56:00
1:16 PM,23.0,14.0,68,29.91,-9999.0,WSW,13.8,24.2,N/A,Snow,Light Snow,250,2013-01-30 20:16:00
1:36 PM,23.0,14.0,68,29.92,-9999.0,WSW,11.5,-,N/A,Snow,Light Snow,250,2013-01-30 20:36:00
1:56 PM,24.8,17.6,74,29.92,-9999.0,WSW,8.1,17.3,N/A,Snow,Light Snow,250,2013-01-30 20:56:00
2:16 PM,28.4,17.6,64,29.92,-9999.0,WSW,6.9,-,N/A,,Overcast,250,2013-01-30 21:16:00
2:36 PM,26.6,17.6,69,29.92,-9999.0,SSW,8.1,-,N/A,Snow,Light Snow,210,2013-01-30 21:36:00
2:56 PM,24.8,17.6,74,29.93,-9999.0,SSW,6.9,-,N/A,,Overcast,200,2013-01-30 21:56:00
3:16 PM,24.8,17.6,74,29.93,-9999.0,West,8.1,-,N/A,Snow,Light Snow,260,2013-01-30 22:16:00
3:36 PM,24.8,19.4,80,29.94,-9999.0,Calm,Calm,-,N/A,Snow,Light Snow,0,2013-01-30 22:36:00
3:56 PM,23.0,17.6,80,29.95,-9999.0,South,3.5,-,N/A,Snow,Light Snow,190,2013-01-30 22:56:00
4:16 PM,23.0,19.4,86,29.96,-9999.0,Calm,Calm,-,N/A,Snow,Snow,0,2013-01-30 23:16:00
4:36 PM,23.0,17.6,80,29.96,-9999.0,WSW,4.6,-,N/A,Snow,Light Snow,240,2013-01-30 23:36:00
4:56 PM,23.0,17.6,80,29.95,-9999.0,WSW,10.4,-,N/A,Snow,Light Snow,240,2013-01-30 23:56:00
5:16 PM,23.0,17.6,80,29.95,-9999.0,WSW,11.5,18.4,N/A,Snow,Light Snow,240,2013-01-31 00:16:00
5:36 PM,21.2,17.6,86,29.96,-9999.0,West,3.5,-,N/A,Snow,Light Snow,260,2013-01-31 00:36:00
5:56 PM,21.2,17.6,86,29.97,-9999.0,West,6.9,-,N/A,Snow,Light Snow,260,2013-01-31 00:56:00
6:16 PM,21.2,17.6,86,29.97,-9999.0,Calm,Calm,-,N/A,Snow,Light Snow,0,2013-01-31 01:16:00
6:36 PM,23.0,17.6,80,29.97,-9999.0,West,9.2,-,N/A,Snow,Light Snow,270,2013-01-31 01:36:00
6:56 PM,23.0,17.6,80,29.98,-9999.0,WSW,5.8,-,N/A,Snow,Light Snow,250,2013-01-31 01:56:00
7:16 PM,23.0,17.6,80,29.98,-9999.0,WSW,4.6,-,0.01,Snow,Light Snow,240,2013-01-31 02:16:00
7:36 PM,23.0,17.6,80,29.99,-9999.0,SW,10.4,16.1,0.01,Snow,Light Snow,230,2013-01-31 02:36:00
7:56 PM,23.0,17.6,80,29.99,-9999.0,SW,5.8,-,0.01,Snow,Light Snow,220,2013-01-31 02:56:00
8:16 PM,23.0,17.6,80,30.00,-9999.0,SSW,5.8,-,N/A,Snow,Light Snow,200,2013-01-31 03:16:00
8:36 PM,24.8,17.6,74,30.01,-9999.0,South,4.6,16.1,N/A,Snow,Light Snow,190,2013-01-31 03:36:00
8:56 PM,24.8,17.6,74,30.01,-9999.0,SW,5.8,-,N/A,Snow,Light Snow,230,2013-01-31 03:56:00
9:16 PM,23.0,17.6,80,30.00,-9999.0,SW,10.4,-,N/A,Snow,Light Snow,230,2013-01-31 04:16:00
9:36 PM,24.8,19.4,80,30.01,-9999.0,WSW,9.2,-,N/A,Snow,Light Snow,240,2013-01-31 04:36:00
9:56 PM,24.8,17.6,74,30.01,-9999.0,SW,8.1,-,N/A,Snow,Light Snow,230,2013-01-31 04:56:00
10:16 PM,24.8,17.6,74,30.01,-9999.0,WSW,8.1,-,N/A,Snow,Light Snow,240,2013-01-31 05:16:00
10:36 PM,24.8,17.6,74,30.02,-9999.0,West,3.5,-,N/A,,Overcast,260,2013-01-31 05:36:00
10:56 PM,23.0,17.6,80,30.02,-9999.0,WSW,8.1,-,N/A,Snow,Light Snow,240,2013-01-31 05:56:00
11:16 PM,23.0,17.6,80,30.01,-9999.0,WSW,12.7,17.3,N/A,Snow,Light Snow,250,2013-01-31 06:16:00
11:36 PM,23.0,17.6,80,30.02,-9999.0,WSW,12.7,-,N/A,Snow,Light Snow,240,2013-01-31 06:36:00
11:56 PM,23.0,17.6,80,30.01,-9999.0,WSW,16.1,20.7,N/A,Snow,Light Snow,250,2013-01-31 06:56:00